Location: Clanezzo
(45.7500°N, 9.6000°E)
Time: 12:34:51
(UTC+00:00)

Gbstr 26 Del rocket - Pass Details

Date: 01 October 2021
Orbit: 492 x 1263 km, 51.8° (Epoch: 25 October)

Event Time Altitude Azimuth Distance (km) Brightness Sun altitude
Rises 22:35:08 0° 292° (WNW) 4,129 7.6 -47.1°
Reaches altitude 10° 22:37:57 10° 295° (WNW) 3,210 6.9 -47.2°
Enters shadow 22:39:34 17° 298° (WNW) 2,699 6.5 -47.3°
